Weather History for Aurora, NE

Change the Weather History Date:

Wednesday, January 8, 2014

  Actual Average Record
Temperature  
Mean Temperature 20 °F -  
Max Temperature 23 °F 29 °F 66 °F (2002)
Min Temperature 16 °F 8 °F -12 °F (1967)
Degree Days  
Heating Degree Days 46    
Moisture  
Dew Point 15 °F    
Average Humidity 85    
Maximum Humidity 90    
Minimum Humidity 64    
Precipitation  
Precipitation 0.00 in - - ()
Sea Level Pressure  
Sea Level Pressure 30.26 in    
Wind  
Wind Speed 8 mph (ENE)    
Max Wind Speed 13 mph    
Max Gust Speed -    
Visibility 7 miles    
Events Snow    
Averages and records for this station are not official NWS values.
T = Trace of Precipitation, MM = Missing Value Source: NWS Daily Summary

Daily Weather History Graph

Daily Weather History Graph

Search for Another Location

Airport:

Trip Planner

Search our weather history database for the weather conditions in past years. The results will help you decide how hot, cold, wet, or windy it might be!

Date:

Astronomy

Jan. 08, 2014 Rise Set
Actual Time 7:56 AM CST 5:21 PM CST
Civil Twilight 7:25 AM CST 5:52 PM CST
Nautical Twilight 6:51 AM CST 6:26 PM CST
Astronomical Twilight 6:18 AM CST 6:59 PM CST
Moon 12:16 PM CST (1/8) 1:01 AM CST (1/8)
Length of Visible Light 10h 26m
Length of Day
9h 24m
First Quarter, 56% of the Moon is Illuminated
Jan 8
First Quarter
Jan 15
Full
Jan 23
Last Quarter
Jan 30
New
Feb 6
First Quarter

Hourly Weather History & Observations

Time (CST) Temp. Windchill Dew Point Humidity Pressure Visibility Wind Dir Wind Speed Gust Speed Precip Events Conditions
12:15 AM 23.5 °F 17.6 °F 12.9 °F 64% 30.18 in 10.0 mi NE 4.6 mph - N/A   Overcast
12:35 AM 22.8 °F 15.5 °F 14.9 °F 72% 30.18 in 10.0 mi NE 5.8 mph - N/A   Overcast
12:55 AM 22.1 °F 15.9 °F 16.2 °F 78% 30.18 in 10.0 mi NNE 4.6 mph - N/A   Overcast
1:15 AM 22.1 °F 13.7 °F 16.7 °F 80% 30.18 in 10.0 mi NNE 6.9 mph - N/A   Overcast
1:35 AM 21.7 °F 10.8 °F 16.7 °F 81% 30.19 in 10.0 mi NNE 10.4 mph - N/A   Overcast
1:55 AM 21.2 °F 10.9 °F 16.7 °F 83% 30.18 in 10.0 mi NNE 9.2 mph - N/A   Overcast
2:15 AM 20.3 °F 9.0 °F 16.0 °F 83% 30.19 in 10.0 mi NNE 10.4 mph - N/A   Overcast
2:35 AM 20.1 °F 11.3 °F 15.8 °F 83% 30.19 in 10.0 mi NNE 6.9 mph - N/A   Overcast
2:55 AM 19.9 °F 12.1 °F 15.6 °F 83% 30.20 in 10.0 mi NE 5.8 mph - N/A   Overcast
3:15 AM 19.9 °F 12.1 °F 15.8 °F 84% 30.20 in 7.0 mi ENE 5.8 mph - N/A Snow Light Snow
3:35 AM 19.4 °F 11.5 °F 15.8 °F 86% 30.20 in 4.0 mi ENE 5.8 mph - N/A Snow Light Snow
3:55 AM 19.4 °F 12.8 °F 16.2 °F 87% 30.20 in 2.5 mi ENE 4.6 mph - N/A Snow Light Snow
4:15 AM 19.4 °F 10.4 °F 16.3 °F 88% 30.20 in 4.0 mi NE 6.9 mph - N/A Snow Light Snow
4:35 AM 19.4 °F 10.4 °F 16.7 °F 89% 30.20 in 4.0 mi NE 6.9 mph - N/A Snow Light Snow
4:55 AM 19.4 °F 10.4 °F 16.7 °F 89% 30.20 in 4.0 mi NE 6.9 mph - N/A Snow Light Snow
5:15 AM 19.2 °F 9.3 °F 16.7 °F 90% 30.20 in 3.0 mi NE 8.1 mph - N/A Snow Light Snow
5:35 AM 19.2 °F 10.2 °F 16.7 °F 90% 30.20 in 4.0 mi NE 6.9 mph - N/A Snow Light Snow
5:55 AM 19.2 °F 8.4 °F 16.7 °F 90% 30.21 in 5.0 mi NE 9.2 mph - N/A Snow Light Snow
6:15 AM 18.9 °F 8.0 °F 16.3 °F 90% 30.21 in 4.0 mi NE 9.2 mph - N/A Snow Light Snow
6:35 AM 18.5 °F 7.5 °F 15.8 °F 89% 30.22 in 3.0 mi ENE 9.2 mph - N/A Snow Light Snow
6:55 AM 18.5 °F 7.5 °F 15.8 °F 89% 30.22 in 2.5 mi ENE 9.2 mph - N/A Snow Light Snow
7:15 AM 18.1 °F 5.6 °F 15.4 °F 89% 30.23 in 2.5 mi ENE 11.5 mph - N/A Snow Light Snow
7:35 AM 18.0 °F 5.4 °F 14.9 °F 88% 30.24 in 3.0 mi NE 11.5 mph - N/A Snow Light Snow
7:55 AM 17.6 °F 4.3 °F 14.0 °F 86% 30.24 in 7.0 mi NE 12.7 mph - N/A Snow Light Snow
8:15 AM 17.4 °F 6.2 °F 14.0 °F 86% 30.25 in 5.0 mi NE 9.2 mph - N/A Snow Light Snow
8:35 AM 17.2 °F 6.0 °F 13.8 °F 86% 30.26 in 4.0 mi ENE 9.2 mph - N/A Snow Light Snow
8:55 AM 16.9 °F 4.1 °F 13.3 °F 86% 30.27 in 2.5 mi NE 11.5 mph - N/A Snow Light Snow
9:15 AM 16.7 °F 4.5 °F 13.3 °F 86% 30.29 in 1.5 mi NE 10.4 mph - N/A Snow Light Snow
9:35 AM 17.2 °F 5.2 °F 13.8 °F 86% 30.30 in 1.8 mi ENE 10.4 mph - N/A Snow Light Snow
9:55 AM 16.7 °F 5.3 °F 13.1 °F 86% 30.31 in 1.8 mi ENE 9.2 mph - N/A Snow Light Snow
10:15 AM 16.5 °F 4.3 °F 12.7 °F 85% 30.32 in 1.5 mi ENE 10.4 mph - N/A Snow Light Snow
10:35 AM 16.5 °F 5.1 °F 12.7 °F 85% 30.32 in 1.2 mi East 9.2 mph - N/A Snow Light Snow
10:55 AM 16.2 °F 3.9 °F 11.8 °F 83% 30.32 in 1.5 mi ENE 10.4 mph - N/A Snow Light Snow
11:15 AM 16.5 °F 6.0 °F 12.6 °F 84% 30.33 in 2.0 mi ENE 8.1 mph - N/A Snow Light Snow
11:35 AM 16.5 °F 6.0 °F 12.4 °F 84% 30.32 in 1.5 mi ENE 8.1 mph - N/A Snow Light Snow
11:55 AM 16.7 °F 5.3 °F 12.4 °F 83% 30.31 in 1.5 mi ENE 9.2 mph - N/A Snow Light Snow
12:15 PM 16.7 °F 7.2 °F 12.2 °F 82% 30.30 in 2.5 mi ENE 6.9 mph - N/A Snow Light Snow
12:35 PM 17.4 °F 9.1 °F 12.9 °F 83% 30.30 in 3.0 mi ENE 5.8 mph - N/A Snow Light Snow
12:55 PM 17.8 °F 9.6 °F 12.9 °F 81% 30.29 in 3.0 mi East 5.8 mph - N/A Snow Light Snow
1:15 PM 18.3 °F 9.1 °F 13.1 °F 80% 30.29 in 5.0 mi ENE 6.9 mph - N/A   Haze
1:35 PM 18.5 °F 8.4 °F 13.5 °F 81% 30.28 in 4.0 mi East 8.1 mph - N/A   Haze
1:55 PM 18.5 °F 10.4 °F 13.5 °F 81% 30.27 in 5.0 mi ENE 5.8 mph - N/A   Haze
2:15 PM 18.7 °F 9.5 °F 14.0 °F 82% 30.27 in 5.0 mi East 6.9 mph - N/A Snow Light Snow
2:35 PM 18.9 °F 9.8 °F 14.0 °F 81% 30.27 in 7.0 mi East 6.9 mph - N/A Snow Light Snow
2:55 PM 19.0 °F 9.0 °F 14.0 °F 81% 30.27 in 10.0 mi ENE 8.1 mph - N/A   Overcast
3:15 PM 19.0 °F 9.0 °F 14.4 °F 82% 30.27 in 10.0 mi East 8.1 mph - N/A   Overcast
3:35 PM 19.0 °F 10.0 °F 14.2 °F 81% 30.28 in 10.0 mi East 6.9 mph - N/A   Overcast
3:55 PM 18.9 °F 8.8 °F 14.0 °F 81% 30.28 in 10.0 mi ENE 8.1 mph - N/A   Overcast
4:15 PM 19.0 °F 10.0 °F 14.5 °F 83% 30.28 in 10.0 mi East 6.9 mph - N/A   Overcast
4:35 PM 18.9 °F 9.8 °F 14.5 °F 83% 30.28 in 10.0 mi East 6.9 mph - N/A   Overcast
4:55 PM 18.5 °F 7.5 °F 14.2 °F 83% 30.28 in 10.0 mi East 9.2 mph - N/A   Overcast
5:15 PM 18.3 °F 8.2 °F 14.0 °F 83% 30.28 in 10.0 mi ENE 8.1 mph - N/A   Overcast
5:35 PM 18.5 °F 8.4 °F 14.5 °F 85% 30.28 in 10.0 mi East 8.1 mph - N/A   Overcast
5:55 PM 18.5 °F 9.3 °F 14.7 °F 85% 30.28 in 10.0 mi ESE 6.9 mph - N/A   Overcast
6:15 PM 18.5 °F 8.4 °F 14.7 °F 85% 30.27 in 10.0 mi ESE 8.1 mph - N/A   Overcast
6:35 PM 18.5 °F 6.8 °F 14.9 °F 86% 30.28 in 10.0 mi ESE 10.4 mph - N/A   Overcast
6:55 PM 18.5 °F 7.5 °F 14.9 °F 86% 30.28 in 10.0 mi ESE 9.2 mph - N/A   Overcast
7:15 PM 18.7 °F 8.6 °F 15.3 °F 87% 30.29 in 10.0 mi ESE 8.1 mph - N/A   Overcast
7:35 PM 18.7 °F 7.8 °F 15.4 °F 87% 30.29 in 10.0 mi ESE 9.2 mph - N/A   Overcast
7:55 PM 18.5 °F 7.5 °F 14.9 °F 86% 30.29 in 10.0 mi ESE 9.2 mph - N/A   Overcast
8:15 PM 18.3 °F 7.3 °F 14.9 °F 86% 30.29 in 10.0 mi ESE 9.2 mph - N/A   Overcast
8:35 PM 18.3 °F 7.3 °F 15.1 °F 87% 30.29 in 10.0 mi SE 9.2 mph - N/A   Overcast
8:55 PM 18.3 °F 6.6 °F 14.9 °F 86% 30.30 in 10.0 mi SE 10.4 mph - N/A   Overcast
9:15 PM 18.3 °F 7.3 °F 14.9 °F 86% 30.30 in 10.0 mi SE 9.2 mph - N/A   Overcast
9:35 PM 18.1 °F 7.9 °F 14.4 °F 85% 30.30 in 10.0 mi SE 8.1 mph - N/A   Overcast
9:55 PM 17.8 °F 7.5 °F 14.2 °F 86% 30.30 in 10.0 mi SE 8.1 mph - N/A   Overcast
10:15 PM 17.6 °F 7.3 °F 14.4 °F 87% 30.30 in 10.0 mi SE 8.1 mph - N/A   Overcast
10:35 PM 17.4 °F 7.1 °F 14.0 °F 86% 30.30 in 10.0 mi SE 8.1 mph - N/A   Overcast
10:55 PM 16.3 °F 9.2 °F 13.5 °F 88% 30.29 in 10.0 mi SSE 4.6 mph - N/A   Overcast
11:15 PM 16.3 °F 7.8 °F 13.3 °F 88% 30.28 in 10.0 mi SE 5.8 mph - N/A   Overcast
11:35 PM 16.7 °F 7.2 °F 13.8 °F 88% 30.27 in 10.0 mi SE 6.9 mph - N/A   Overcast
11:55 PM 16.7 °F 6.2 °F 14.0 °F 89% 30.27 in 10.0 mi SE 8.1 mph - N/A   Overcast